Wind_Speed
53 51 49 48 48 46 44 41 39 37 38 38 38 37 36 36 36 35 34 33 33 32 29 27 26 26 26 27 26 26 26 26 26 27 28 28 29 30 29 28 26 22 19 17 16 16 16 16 17 17 17 17 17 17 18 19 21 22 23 24 25 26 28
52 49 47 46 47 48 47 46 43 40 39 40 39 37 35 35 36 36 35 35 35 34 31 28 27 27 27 26 27 27 28 27 28 28 28 28 28 29 28 26 24 21 19 18 17 17 17 18 19 18 17 18 18 18 20 20 21 23 24 25 25 26 27
52 46 43 43 44 47 48 47 45 41 39 38 38 36 33 33 35 35 34 34 34 33 31 29 27 26 26 26 28 29 28 28 28 28 27 26 26 26 26 25 23 20 19 19 18 18 19 20 20 19 19 19 19 20 21 21 22 24 25 25 26 26 27
53 48 43 41 41 42 44 44 42 39 38 37 36 34 32 31 31 31 31 32 32 31 29 27 26 25 25 26 27 28 28 27 26 26 25 24 25 25 25 24 22 20 20 20 20 20 21 22 22 21 20 21 21 21 22 22 23 25 26 27 26 27 27
55 51 47 44 42 41 40 39 39 37 38 36 34 33 33 32 31 30 29 29 29 30 31 29 27 25 25 25 25 26 26 26 25 24 25 25 25 26 25 24 23 21 21 22 22 22 23 23 23 23 22 23 22 22 23 24 24 26 27 28 28 28 28
55 53 50 47 46 44 41 39 39 38 39 39 37 35 34 34 35 33 31 30 29 30 32 31 28 25 24 24 25 25 25 25 25 25 27 28 28 28 27 26 24 23 23 24 25 25 25 25 25 24 24 25 24 24 24 24 25 27 29 30 30 30 31
52 52 52 51 49 47 43 42 42 41 41 41 40 39 38 37 36 33 29 27 28 28 29 29 26 23 23 23 24 26 26 26 26 28 29 30 30 30 29 27 26 25 24 26 27 27 27 27 26 25 26 27 27 26 25 25 26 28 29 31 31 32 33
50 51 54 54 52 49 44 45 47 45 43 40 38 38 38 37 36 32 29 28 29 29 29 29 27 25 25 25 25 28 29 29 29 29 30 31 31 30 29 28 27 26 26 27 28 29 29 29 28 27 28 28 28 28 27 26 28 29 30 31 32 33 34
50 53 57 57 55 51 45 43 47 47 46 44 41 39 36 34 34 34 33 33 32 31 31 32 31 30 30 30 31 33 33 32 31 30 30 31 31 31 30 29 28 28 29 29 30 31 31 31 30 29 29 30 30 29 28 28 29 31 31 32 33 34 34
50 53 57 57 55 52 46 42 43 45 45 45 43 42 39 36 35 35 35 34 34 34 33 32 32 32 31 31 33 34 33 32 31 30 30 31 32 32 31 30 30 29 30 32 33 34 34 34 33 31 31 31 32 31 30 30 31 32 33 34 35 35 35
47 50 55 56 54 51 47 45 45 45 45 43 40 39 40 40 39 38 37 38 40 39 36 33 33 33 32 30 32 33 30 30 31 30 32 33 33 33 32 32 32 31 32 33 35 36 36 36 35 34 33 33 33 33 32 32 33 34 35 36 36 36 37
44 46 50 53 54 51 46 44 43 44 44 44 41 39 40 42 42 41 39 40 44 44 43 41 40 40 36 31 34 36 33 32 34 34 34 35 34 33 33 33 33 32 32 34 36 37 37 36 36 35 35 34 35 35 34 34 34 35 37 37 36 38 39
41 43 45 49 54 52 47 44 41 41 43 43 42 41 40 42 43 43 42 43 45 46 48 47 44 42 39 34 37 39 36 35 37 36 36 35 34 34 34 33 34 33 33 34 35 36 37 37 37 37 37 36 36 36 36 35 35 37 39 38 37 38 40
37 40 42 46 53 54 49 46 45 43 42 42 41 39 39 40 42 44 44 44 45 46 46 46 43 41 39 37 40 42 39 39 40 38 36 36 35 36 35 34 34 34 34 34 35 36 37 37 38 39 39 37 37 37 37 38 39 40 40 38 38 39 41
36 39 42 45 50 53 50 47 48 46 43 42 41 40 41 41 41 43 44 43 44 44 43 43 41 41 41 41 43 45 44 45 44 39 36 37 37 36 35 34 34 34 34 35 35 36 37 39 39 40 39 39 38 38 39 39 41 41 39 38 39 40 41
41 41 42 44 46 50 52 51 52 51 45 42 40 39 40 41 40 42 43 43 44 43 43 44 43 43 44 43 44 46 47 46 43 39 38 39 37 36 35 34 34 35 35 36 36 37 38 40 41 40 40 39 39 40 41 41 41 41 39 39 40 41 41
47 44 44 45 47 50 51 52 53 52 46 42 39 38 38 37 37 39 40 42 43 44 46 47 46 46 46 45 44 45 45 43 41 41 41 39 37 36 35 35 35 36 37 37 38 38 40 41 42 41 40 40 40 42 42 42 41 40 40 40 42 42 41
49 46 43 43 47 50 51 52 54 54 49 43 40 37 37 37 37 39 40 42 44 46 48 49 49 49 48 45 45 45 44 42 42 42 41 39 38 37 36 36 36 37 38 39 40 40 40 41 42 42 40 40 42 43 43 42 41 40 41 43 44 43 42
50 48 43 41 43 47 50 53 55 56 53 49 46 44 42 42 42 42 42 43 44 46 48 48 48 48 46 44 44 45 44 42 42 42 41 41 39 38 37 36 37 38 40 41 41 41 40 40 41 41 40 40 42 43 43 42 41 42 43 45 45 44 43
52 51 47 45 45 46 48 51 53 54 53 51 49 49 49 48 47 45 44 44 45 45 45 45 45 45 45 43 43 43 42 41 42 43 44 43 40 38 37 38 39 40 41 42 42 41 40 40 40 40 39 41 43 43 43 43 43 45 45 45 45 45 45
48 50 48 48 48 48 48 50 52 52 52 52 51 50 51 51 51 48 46 45 45 46 45 45 45 44 43 40 39 39 41 42 44 45 45 44 41 40 41 41 40 41 42 43 42 41 41 40 40 40 40 42 43 44 45 45 46 47 46 45 45 45 46
43 47 49 49 50 50 49 49 49 49 50 51 51 51 53 52 51 49 47 46 46 47 47 46 46 44 42 39 38 40 44 46 47 47 47 46 46 45 44 44 43 41 42 42 41 41 41 41 42 43 43 44 45 46 47 48 48 48 47 46 45 45 47
39 43 49 52 53 52 50 48 46 44 45 47 48 49 51 51 49 48 47 47 47 47 47 46 46 45 44 42 41 43 47 49 50 51 50 50 49 48 46 46 45 42 41 41 41 42 42 43 45 47 47 47 47 48 49 50 50 49 49 48 47 46 47
34 38 43 50 54 55 55 52 48 44 43 45 45 45 47 48 48 48 47 47 47 47 47 47 46 47 47 46 46 46 49 51 52 53 53 51 49 48 47 46 46 45 44 44 44 44 44 46 48 49 50 50 49 50 51 51 51 50 50 50 49 48 49
31 34 36 41 47 52 55 56 54 51 48 46 46 47 46 47 49 50 49 48 47 47 48 48 48 48 49 50 50 50 51 52 53 54 53 51 50 49 47 46 46 47 47 46 46 46 48 49 51 52 52 51 51 53 53 52 52 51 51 52 51 50 51
31 32 34 37 40 44 47 49 52 53 51 49 49 49 48 47 48 49 50 50 49 49 50 51 51 51 52 52 52 53 53 54 55 55 53 52 52 51 49 48 48 47 46 46 47 50 51 53 54 54 54 53 54 55 55 53 52 52 52 53 53 52 53
32 32 34 38 41 41 42 44 46 47 48 48 47 47 47 49 49 49 50 51 52 53 53 53 53 52 52 52 52 52 53 54 55 56 55 55 55 53 51 50 48 47 46 48 50 52 53 54 55 54 54 54 55 56 56 55 53 53 53 53 54 55 56
31 33 34 39 43 43 43 43 43 42 43 43 44 45 48 51 51 51 52 52 52 53 53 52 52 51 50 50 51 52 52 54 55 56 57 57 56 55 53 52 50 49 49 50 52 53 54 54 54 54 55 56 57 57 57 55 54 54 54 55 56 58 58
30 32 35 39 43 45 45 45 44 43 40 39 42 46 50 52 51 50 51 50 49 49 50 51 51 51 50 51 52 53 54 55 56 57 57 58 57 56 55 54 53 53 52 52 53 53 53 53 54 55 56 57 57 57 56 55 55 55 56 57 59 59 58
33 31 34 39 44 46 46 46 47 48 46 42 42 46 50 50 49 48 49 49 49 50 51 52 53 53 53 54 55 55 56 57 57 57 58 59 59 57 56 55 54 53 52 52 53 53 53 54 55 56 56 56 56 56 56 57 57 58 58 59 58 58 58
39 36 35 38 43 47 49 49 49 50 51 49 48 49 51 50 48 49 50 50 51 52 53 54 54 54 54 55 55 55 55 56 56 56 57 59 59 57 55 53 52 52 51 52 53 54 55 55 55 56 55 56 56 57 58 58 59 59 59 59 59 59 60
45 43 41 41 41 43 48 52 53 53 53 53 52 51 51 50 48 48 48 49 51 53 55 56 56 56 55 55 54 55 56 56 57 58 59 59 59 57 54 52 52 52 53 54 55 56 56 56 56 57 57 58 59 59 60 60 61 61 61 61 61 62 62
50 49 48 48 46 45 46 51 55 56 56 56 56 53 51 48 46 45 46 47 50 52 54 56 58 58 58 58 57 57 57 58 58 60 60 60 59 57 55 54 54 55 56 57 58 59 59 59 59 59 60 61 61 62 63 63 63 63 64 64 64 64 64
54 53 53 53 52 50 49 51 54 57 58 59 59 58 55 51 49 48 49 49 50 52 54 57 59 61 62 62 63 63 63 62 62 63 63 62 61 61 60 60 59 60 61 61 61 61 61 61 62 62 63 63 64 65 65 66 66 66 67 67 67 66 66
57 56 56 57 57 55 54 54 54 56 59 60 61 60 58 55 54 54 55 55 55 54 55 56 59 60 60 61 62 64 65 65 66 66 66 66 66 66 66 66 66 66 67 66 66 65 65 64 65 65 65 66 67 67 68 68 69 69 69 68 68 68 68
57 57 57 57 58 58 58 57 57 58 59 60 61 61 60 59 59 59 59 58 58 57 56 57 59 60 60 61 61 62 63 64 65 67 67 68 69 70 71 71 72 71 71 71 70 70 69 69 69 69 69 70 70 71 71 71 71 70 70 69 70 71 71
55 55 56 57 57 58 59 59 60 61 61 61 62 63 62 62 62 63 63 61 60 59 60 61 61 61 62 63 63 64 64 64 65 66 67 67 68 69 69 70 71 71 71 72 72 73 73 73 72 72 71 71 71 71 71 71 71 71 71 72 73 74 74
Wind_Direction
246 247 245 243 242 243 246 250 252 253 256 260 266 271 274 273 270 269 269 270 273 276 276 277 279 282 287 290 292 295 297 296 295 295 296 297 297 297 298 300 303 299 290 291 300 304 305 308 311 315 316 313 306 300 300 307 317 325 329 332 333 333 331
244 247 248 246 243 243 246 250 254 257 261 266 269 271 272 270 268 267 268 270 272 273 272 273 276 280 284 287 289 290 292 292 292 295 295 294 295 295 296 299 301 295 287 289 296 301 302 304 305 307 312 314 308 301 299 303 310 318 324 327 329 331 331
239 242 245 247 245 244 246 250 254 257 261 265 267 266 265 263 263 264 266 269 270 270 270 271 273 276 278 281 284 286 288 290 291 292 293 293 294 295 296 299 299 293 285 285 292 296 299 301 300 300 306 312 309 302 300 301 306 313 319 321 323 327 330
237 236 236 239 243 245 246 249 253 252 252 256 257 257 254 253 257 262 265 268 269 270 270 270 270 271 273 276 280 284 286 288 289 290 290 292 295 297 298 298 297 293 284 281 286 290 293 298 298 294 298 306 308 303 300 299 302 309 315 317 318 321 325
237 235 232 230 235 242 244 246 249 247 244 246 248 251 252 250 252 259 265 269 272 273 273 271 270 268 270 274 277 279 282 284 286 286 288 291 295 298 299 299 297 293 284 279 281 284 288 294 296 292 292 299 304 303 300 297 299 305 311 313 314 316 319
237 237 235 231 229 236 240 242 246 248 245 242 242 246 250 250 251 257 265 271 273 273 273 272 271 266 267 273 274 274 276 280 282 284 287 290 294 297 300 299 298 293 286 279 276 279 284 291 295 291 288 293 299 301 299 296 297 300 305 308 308 311 313
237 237 240 237 231 232 236 237 241 245 247 246 246 248 250 252 255 258 261 261 259 260 262 266 268 264 266 270 268 267 271 275 279 282 286 290 293 296 298 298 297 294 287 279 275 277 281 288 294 291 286 288 293 297 297 296 296 297 300 302 303 305 308
236 233 236 237 231 228 232 233 234 239 243 245 246 247 251 256 258 259 254 247 247 251 250 251 255 259 264 266 262 263 269 274 278 281 285 288 292 295 297 296 295 293 286 280 276 276 280 287 292 290 285 284 288 292 295 295 294 295 297 298 300 304 305
234 230 230 231 228 226 229 234 237 241 242 242 242 243 247 252 253 253 251 247 248 249 244 244 250 258 265 268 267 267 270 273 277 280 283 286 290 294 294 294 293 289 284 279 276 276 280 286 291 290 286 283 285 289 292 292 291 292 295 296 299 303 305
236 231 229 228 227 226 229 234 238 238 240 242 244 243 242 243 242 244 246 244 244 245 243 247 255 259 267 272 271 269 268 270 272 275 280 284 288 291 291 290 290 287 283 278 276 277 280 284 288 289 286 283 284 287 289 289 289 290 293 295 298 301 303
239 236 231 227 226 227 229 233 234 234 237 241 245 245 242 242 241 242 243 240 242 243 242 249 257 261 266 267 262 261 263 266 270 273 278 282 284 287 287 287 287 286 282 278 275 277 280 283 285 287 287 284 283 285 288 289 288 289 292 294 296 298 301
239 237 234 227 224 225 227 231 234 236 239 242 246 247 245 244 243 244 243 240 243 244 242 249 258 262 264 257 251 255 258 262 270 275 277 279 280 283 284 284 285 284 280 276 275 276 278 280 282 285 287 284 282 284 287 288 289 291 292 293 294 296 298
239 237 237 228 222 222 224 228 233 239 242 243 246 247 245 244 244 245 246 244 246 247 246 253 258 259 260 252 245 253 256 258 269 274 273 275 277 279 281 281 281 281 278 275 274 275 276 278 281 284 286 284 281 283 285 287 289 292 292 292 293 294 295
241 240 239 230 223 222 223 225 231 238 242 243 244 245 244 245 244 245 246 246 248 250 251 255 256 254 256 251 245 250 253 257 268 272 270 272 275 277 278 279 279 278 276 274 273 273 275 277 279 283 285 283 282 283 285 286 289 292 292 291 292 292 293
236 237 238 233 226 224 222 222 228 236 242 244 246 246 244 244 243 242 243 244 247 251 252 252 252 250 251 250 248 249 251 258 267 270 269 271 274 276 277 277 277 276 274 273 272 273 274 277 279 282 284 283 282 283 284 285 289 292 291 289 289 291 292
232 235 237 236 232 227 224 224 228 233 239 241 243 243 242 240 239 239 240 243 246 249 249 248 250 250 251 254 254 252 253 259 264 266 268 271 272 274 276 277 276 275 274 273 272 273 275 278 280 281 282 282 282 283 283 285 288 289 288 286 289 291 292
234 236 238 238 236 230 225 225 228 231 234 236 237 240 241 239 239 239 241 243 246 247 248 249 252 253 255 258 257 255 256 259 262 265 267 268 270 274 277 277 276 275 274 273 273 274 276 278 280 280 280 282 282 282 283 284 286 286 285 287 290 291 291
233 236 237 237 237 234 230 228 229 229 230 232 236 242 243 242 241 242 243 244 246 248 250 253 255 256 257 257 254 254 257 260 262 264 264 266 271 276 276 275 275 274 274 273 273 273 274 275 276 277 279 280 281 282 283 284 286 285 286 288 290 290 290
231 233 234 231 233 235 235 234 233 233 233 234 237 242 245 246 245 244 244 245 247 249 251 253 253 254 255 253 252 255 258 260 259 259 262 268 272 273 274 273 273 273 273 273 272 271 271 272 273 276 278 280 281 282 283 284 285 285 286 288 289 290 291
231 233 232 228 229 232 235 237 238 239 239 238 240 244 247 249 248 246 246 247 248 250 252 253 253 253 254 254 255 257 257 256 255 257 264 268 269 271 272 272 272 272 272 271 269 269 269 271 273 276 279 280 281 282 284 285 285 284 285 287 288 288 289
229 231 230 227 228 232 235 239 242 243 244 244 245 248 249 248 248 248 249 248 248 250 252 255 257 256 256 256 255 252 249 249 252 258 263 265 267 272 273 273 273 272 270 268 267 268 270 273 275 277 279 280 282 283 284 284 284 284 285 285 285 286 287
228 228 227 224 226 230 232 236 240 243 245 246 247 248 248 248 248 249 250 249 249 251 254 256 257 257 256 253 248 244 243 246 252 258 262 264 267 271 273 274 274 272 268 266 266 270 274 276 277 278 280 282 283 284 284 284 283 283 283 283 283 285 286
232 228 226 223 224 226 227 229 234 239 242 244 245 247 247 248 248 248 249 250 250 253 255 255 255 255 254 251 247 244 244 248 253 257 261 264 267 269 272 274 273 269 266 265 269 273 275 276 278 280 281 282 283 283 283 283 283 283 283 283 284 285 287
239 233 228 226 225 226 227 228 232 236 240 241 242 243 245 246 246 246 247 249 250 251 252 253 253 253 253 251 249 248 248 250 253 257 260 263 265 269 272 272 269 267 265 267 271 274 275 276 277 279 280 281 282 282 282 283 283 283 282 283 285 286 287
241 236 232 229 228 229 231 233 235 238 241 241 239 240 242 243 244 245 246 248 249 249 249 250 250 251 251 250 250 251 252 253 254 257 260 262 265 269 271 268 266 265 265 267 271 274 276 276 276 277 278 280 281 281 282 282 282 282 282 283 285 286 286
243 236 230 227 227 229 232 234 237 240 240 240 240 240 240 241 242 244 246 247 248 248 249 249 250 249 248 248 249 250 252 254 256 257 259 262 265 268 268 267 265 263 264 268 273 275 275 275 275 276 278 279 280 281 281 281 281 280 281 282 283 284 285
243 240 231 223 222 225 227 228 232 234 234 235 237 239 239 240 241 243 246 246 247 248 250 250 251 250 249 249 250 251 252 253 255 257 259 262 265 266 266 267 265 264 267 271 274 274 273 273 274 275 277 279 279 280 280 280 279 280 281 281 282 283 285
238 240 235 226 222 223 222 222 225 228 230 232 234 237 239 240 242 244 246 247 247 249 250 251 251 251 251 251 252 252 253 253 254 256 258 261 263 264 265 265 265 265 268 271 271 271 271 272 273 274 276 277 277 278 279 279 279 280 281 281 282 284 286
235 237 237 231 226 224 224 225 227 230 235 236 235 237 240 243 244 245 246 248 249 250 251 252 252 252 252 252 253 254 255 256 257 257 259 262 264 264 263 263 264 265 267 269 269 268 269 270 272 273 274 275 276 277 278 278 279 280 281 282 283 284 285
237 238 237 233 228 226 228 232 233 234 238 240 237 236 239 243 245 246 246 247 248 249 249 250 252 253 254 255 256 258 258 259 260 260 260 262 264 264 263 263 263 265 266 266 266 267 268 270 271 272 273 274 275 275 276 277 278 279 280 281 281 282 284
239 242 242 238 233 230 231 234 237 239 240 241 238 237 240 244 246 247 247 247 246 245 246 248 250 252 255 256 257 258 258 259 261 262 262 263 265 266 266 265 264 264 265 265 265 267 268 269 270 270 271 272 272 273 274 275 276 277 278 280 281 282 284
241 244 246 245 242 238 235 235 237 239 241 241 240 240 242 246 247 248 248 247 245 245 246 247 248 250 252 254 255 256 257 258 259 261 263 264 266 267 266 265 264 264 264 265 265 266 266 267 267 268 269 270 271 272 273 274 276 277 279 281 283 284 286
243 245 248 248 246 244 241 237 235 235 236 238 240 240 241 243 245 246 246 248 247 246 246 247 248 248 249 250 251 253 255 257 258 260 261 263 264 264 262 262 262 263 263 263 263 264 264 265 266 267 268 270 271 272 274 275 277 279 281 283 285 286 287
246 247 249 249 248 247 246 244 241 238 237 237 239 240 239 239 240 241 242 246 247 247 248 249 249 250 251 251 251 252 253 255 257 259 260 261 261 261 261 262 263 264 264 264 264 264 264 265 266 268 269 270 272 273 275 277 279 281 283 285 285 286 286
249 248 249 249 248 248 248 248 247 245 243 240 239 239 238 236 236 236 239 242 244 245 247 249 250 251 252 253 254 255 255 256 257 258 258 259 260 260 261 262 264 265 266 265 265 265 266 267 268 269 270 272 273 275 276 278 280 282 283 283 284 284 285
251 249 247 247 247 247 247 248 248 248 246 243 240 238 237 235 234 235 236 239 242 244 246 247 249 251 251 253 256 258 259 259 259 259 259 259 260 260 261 262 263 264 265 265 265 266 267 269 270 272 273 274 274 276 277 278 280 281 281 282 282 283 285
252 249 247 245 244 244 244 245 245 246 247 246 244 241 238 236 236 236 237 238 240 243 245 247 249 251 252 254 256 258 258 259 260 261 262 263 263 263 264 265 265 265 265 266 266 267 268 269 271 272 273 274 274 275 276 278 279 279 280 281 282 283 284
Height
10683 10687 10691 10694 10698 10700 10702 10703 10705 10706 10708 10709 10711 10712 10714 10715 10716 10716 10716 10717 10717 10718 10720 10720 10720 10719 10719 10719 10720 10720 10721 10721 10721 10721 10721 10721 10721 10721 10721 10721 10719 10718 10718 10717 10716 10715 10715 10715 10714 10714 10713 10712 10711 10711 10710 10710 10709 10708 10706 10705 10703 10701 10699
10678 10682 10686 10689 10692 10695 10697 10699 10701 10704 10706 10707 10708 10710 10712 10713 10713 10713 10713 10713 10713 10714 10716 10716 10716 10716 10715 10716 10716 10716 10717 10718 10718 10718 10718 10718 10718 10719 10719 10718 10717 10716 10715 10714 10714 10713 10713 10713 10713 10712 10711 10710 10710 10709 10708 10708 10707 10706 10705 10703 10701 10700 10698
10673 10677 10680 10684 10687 10689 10692 10695 10699 10703 10705 10704 10705 10708 10710 10710 10709 10710 10710 10709 10710 10710 10711 10712 10712 10712 10712 10712 10712 10712 10713 10714 10714 10715 10715 10715 10716 10716 10716 10715 10714 10713 10712 10712 10712 10712 10711 10711 10711 10711 10710 10709 10708 10707 10706 10706 10705 10704 10703 10701 10700 10698 10697
10667 10671 10674 10677 10681 10684 10687 10691 10695 10700 10701 10700 10701 10703 10706 10706 10705 10706 10706 10706 10706 10706 10706 10708 10708 10708 10708 10708 10708 10708 10709 10710 10711 10711 10712 10712 10713 10713 10713 10712 10711 10710 10710 10709 10709 10709 10710 10709 10709 10709 10708 10707 10706 10705 10704 10704 10703 10702 10701 10699 10698 10696 10695
10660 10664 10667 10671 10675 10678 10682 10687 10691 10693 10694 10695 10697 10699 10700 10701 10702 10702 10702 10702 10702 10701 10701 10702 10704 10705 10704 10705 10705 10705 10705 10706 10707 10708 10708 10709 10710 10710 10709 10708 10708 10707 10706 10706 10707 10707 10707 10707 10707 10706 10706 10705 10704 10702 10702 10701 10700 10699 10698 10697 10696 10694 10693
10655 10660 10664 10666 10670 10673 10677 10682 10686 10686 10687 10689 10692 10694 10695 10696 10697 10698 10699 10699 10699 10697 10695 10696 10698 10700 10701 10701 10702 10701 10702 10702 10703 10704 10705 10705 10706 10705 10705 10705 10704 10703 10703 10703 10704 10704 10704 10704 10704 10704 10703 10702 10701 10700 10699 10698 10697 10697 10695 10694 10693 10692 10691
10653 10659 10662 10664 10666 10668 10671 10675 10677 10678 10679 10683 10687 10690 10691 10691 10691 10694 10696 10695 10694 10693 10692 10691 10692 10695 10697 10698 10698 10698 10698 10699 10700 10701 10701 10701 10701 10701 10701 10701 10700 10700 10700 10700 10700 10701 10701 10701 10700 10700 10700 10699 10698 10697 10696 10695 10694 10693 10692 10691 10690 10689 10688
10647 10653 10655 10656 10658 10660 10663 10665 10667 10669 10672 10676 10681 10685 10687 10687 10687 10689 10690 10690 10690 10690 10689 10688 10688 10690 10692 10693 10694 10695 10695 10696 10696 10697 10697 10697 10697 10697 10697 10696 10696 10696 10696 10696 10696 10697 10697 10697 10697 10696 10696 10696 10695 10694 10693 10692 10691 10690 10689 10688 10687 10686 10685
10636 10641 10642 10644 10648 10653 10657 10660 10662 10665 10666 10668 10673 10678 10682 10684 10683 10683 10684 10685 10687 10687 10685 10684 10684 10686 10687 10688 10689 10690 10691 10691 10692 10693 10693 10693 10693 10693 10693 10692 10692 10692 10692 10692 10692 10693 10693 10693 10692 10692 10692 10692 10692 10691 10690 10689 10687 10686 10686 10685 10683 10682 10681
10626 10629 10632 10636 10643 10649 10653 10656 10658 10660 10661 10662 10665 10671 10676 10678 10677 10676 10677 10680 10682 10682 10681 10680 10681 10681 10682 10683 10683 10684 10685 10687 10688 10688 10689 10689 10689 10689 10689 10688 10688 10688 10688 10688 10688 10688 10688 10688 10688 10688 10688 10688 10688 10688 10687 10685 10684 10683 10682 10681 10680 10678 10677
10620 10623 10626 10632 10639 10643 10647 10650 10652 10654 10656 10657 10660 10664 10668 10670 10671 10671 10672 10674 10676 10677 10677 10677 10677 10677 10678 10679 10678 10678 10680 10682 10683 10684 10685 10685 10685 10685 10685 10684 10684 10684 10684 10684 10684 10684 10684 10684 10684 10684 10684 10684 10684 10684 10683 10681 10679 10678 10678 10677 10676 10675 10673
10615 10616 10620 10627 10633 10637 10641 10644 10648 10650 10652 10652 10654 10657 10661 10663 10664 10665 10667 10669 10670 10671 10673 10673 10674 10673 10673 10675 10674 10674 10676 10678 10679 10679 10680 10680 10680 10681 10681 10680 10680 10680 10680 10679 10679 10680 10680 10679 10679 10679 10679 10680 10680 10680 10679 10678 10676 10674 10673 10673 10672 10671 10669
10608 10610 10614 10621 10627 10631 10635 10639 10643 10646 10647 10647 10648 10650 10653 10656 10658 10659 10661 10663 10664 10665 10666 10668 10669 10668 10669 10671 10669 10669 10672 10673 10674 10675 10675 10676 10676 10676 10676 10676 10676 10676 10675 10675 10675 10675 10675 10675 10675 10675 10675 10675 10676 10676 10675 10675 10673 10670 10668 10668 10668 10667 10666
10603 10604 10608 10614 10619 10624 10628 10632 10636 10638 10639 10640 10641 10644 10647 10650 10652 10654 10655 10657 10658 10659 10660 10662 10664 10664 10665 10667 10666 10666 10667 10667 10668 10670 10670 10671 10671 10671 10672 10671 10671 10671 10671 10671 10670 10670 10670 10671 10671 10671 10670 10671 10671 10671 10671 10671 10669 10666 10664 10664 10664 10663 10661
10598 10600 10602 10607 10612 10618 10623 10626 10627 10628 10630 10633 10637 10639 10641 10643 10646 10648 10649 10650 10651 10653 10655 10656 10658 10659 10660 10661 10662 10663 10663 10662 10663 10664 10665 10666 10666 10666 10667 10667 10666 10666 10667 10666 10666 10666 10666 10666 10666 10666 10666 10666 10666 10667 10667 10666 10665 10662 10660 10660 10659 10658 10657
10594 10597 10599 10602 10607 10612 10616 10617 10618 10620 10624 10628 10632 10634 10636 10638 10640 10642 10643 10644 10645 10647 10649 10650 10652 10654 10655 10656 10657 10658 10658 10658 10658 10659 10660 10661 10661 10661 10662 10662 10662 10662 10662 10662 10662 10662 10661 10661 10661 10661 10661 10661 10661 10662 10662 10662 10660 10658 10656 10655 10654 10654 10652
10589 10592 10595 10597 10600 10604 10607 10609 10611 10614 10619 10624 10627 10629 10631 10632 10634 10636 10638 10639 10640 10642 10643 10644 10646 10648 10650 10653 10653 10652 10653 10654 10654 10654 10655 10656 10656 10657 10657 10657 10657 10657 10657 10657 10657 10657 10657 10656 10655 10655 10655 10656 10656 10657 10656 10656 10656 10654 10652 10650 10650 10649 10648
10584 10587 10590 10591 10593 10598 10602 10604 10606 10609 10614 10619 10622 10624 10626 10627 10629 10630 10632 10634 10635 10636 10637 10639 10641 10643 10645 10648 10648 10647 10648 10649 10649 10649 10650 10650 10651 10652 10652 10652 10652 10652 10652 10652 10652 10652 10652 10651 10649 10649 10650 10651 10651 10651 10650 10650 10650 10649 10648 10646 10644 10643 10643
10579 10582 10585 10588 10591 10595 10598 10600 10602 10604 10609 10615 10617 10619 10621 10622 10624 10625 10626 10628 10629 10630 10631 10633 10635 10637 10639 10642 10642 10642 10643 10644 10644 10644 10644 10645 10646 10647 10647 10647 10647 10647 10647 10647 10646 10646 10646 10645 10644 10644 10646 10645 10645 10644 10644 10645 10645 10644 10643 10641 10639 10637 10637
10574 10578 10582 10586 10589 10592 10594 10596 10598 10600 10605 10610 10612 10614 10616 10618 10619 10620 10621 10623 10624 10624 10625 10626 10629 10631 10634 10636 10637 10637 10638 10639 10638 10638 10639 10640 10641 10642 10642 10642 10642 10642 10642 10642 10641 10640 10640 10640 10639 10640 10640 10639 10639 10639 10639 10639 10639 10638 10638 10637 10634 10632 10631
10569 10574 10578 10582 10586 10588 10590 10592 10594 10596 10600 10603 10607 10609 10609 10611 10614 10615 10616 10617 10618 10619 10620 10620 10622 10625 10628 10630 10631 10631 10632 10633 10633 10633 10634 10635 10635 10636 10636 10637 10637 10637 10637 10636 10635 10634 10634 10634 10634 10634 10635 10634 10634 10633 10633 10633 10633 10632 10632 10632 10630 10628 10626
10566 10570 10573 10577 10581 10583 10585 10587 10589 10593 10595 10597 10600 10602 10602 10604 10608 10610 10611 10612 10612 10613 10615 10615 10616 10617 10620 10623 10624 10625 10626 10627 10627 10628 10628 10629 10629 10630 10631 10631 10631 10631 10631 10631 10630 10629 10629 10628 10627 10627 10629 10630 10629 10628 10627 10627 10627 10626 10626 10625 10625 10623 10621
10562 10566 10568 10572 10575 10578 10580 10582 10585 10589 10590 10591 10594 10595 10596 10599 10601 10603 10605 10606 10607 10608 10609 10610 10610 10611 10613 10615 10617 10619 10620 10621 10622 10622 10622 10623 10623 10624 10625 10625 10626 10626 10626 10625 10625 10624 10624 10623 10621 10621 10623 10624 10623 10622 10621 10620 10620 10620 10619 10617 10618 10618 10616
10558 10560 10563 10566 10569 10572 10575 10578 10581 10584 10585 10586 10588 10588 10590 10592 10595 10596 10599 10601 10602 10603 10603 10604 10605 10606 10607 10609 10610 10612 10614 10615 10616 10616 10616 10616 10617 10618 10619 10619 10620 10620 10620 10619 10619 10618 10618 10617 10616 10616 10616 10617 10617 10616 10615 10614 10614 10614 10612 10610 10610 10611 10610
10553 10556 10559 10562 10564 10567 10570 10573 10576 10578 10579 10581 10582 10582 10584 10586 10588 10591 10593 10595 10597 10598 10597 10597 10599 10600 10601 10603 10604 10605 10607 10608 10609 10609 10609 10610 10611 10612 10612 10613 10613 10613 10613 10613 10613 10612 10612 10612 10610 10610 10610 10611 10611 10610 10609 10609 10608 10607 10606 10604 10604 10604 10603
10550 10552 10555 10558 10560 10563 10566 10568 10571 10573 10574 10576 10577 10578 10579 10580 10582 10585 10588 10590 10591 10591 10590 10591 10592 10594 10595 10597 10598 10599 10600 10600 10601 10601 10602 10603 10604 10605 10606 10606 10607 10607 10607 10607 10607 10606 10606 10605 10604 10604 10604 10604 10604 10603 10603 10602 10601 10601 10599 10598 10598 10598 10597
10547 10549 10552 10554 10556 10558 10561 10564 10566 10567 10569 10571 10573 10574 10574 10574 10576 10580 10582 10584 10584 10584 10584 10584 10585 10587 10589 10590 10591 10592 10593 10593 10593 10594 10595 10596 10597 10598 10598 10599 10600 10601 10601 10601 10600 10599 10599 10598 10598 10597 10597 10597 10597 10596 10596 10595 10595 10594 10593 10592 10591 10591 10590
10544 10546 10548 10550 10552 10554 10557 10559 10561 10562 10563 10566 10569 10569 10567 10568 10571 10574 10574 10576 10577 10577 10577 10578 10578 10580 10582 10583 10584 10585 10585 10586 10586 10587 10588 10588 10589 10590 10591 10592 10593 10594 10595 10594 10594 10593 10592 10591 10591 10591 10590 10590 10589 10589 10588 10588 10587 10587 10586 10586 10585 10584 10583
10540 10542 10544 10546 10548 10550 10552 10555 10557 10558 10559 10561 10563 10563 10561 10561 10565 10568 10568 10569 10570 10570 10570 10570 10571 10573 10575 10576 10577 10578 10578 10578 10579 10580 10580 10581 10582 10583 10584 10586 10587 10587 10588 10587 10586 10586 10585 10585 10584 10584 10583 10583 10582 10581 10581 10580 10580 10580 10579 10579 10578 10576 10575
10535 10538 10540 10541 10543 10545 10547 10550 10552 10553 10555 10556 10557 10556 10554 10555 10559 10561 10561 10562 10563 10563 10563 10563 10564 10565 10567 10568 10569 10570 10570 10570 10570 10571 10572 10573 10574 10576 10577 10578 10579 10580 10580 10579 10579 10578 10578 10578 10578 10577 10577 10576 10575 10575 10574 10574 10574 10573 10573 10572 10571 10569 10568
10529 10532 10533 10535 10537 10539 10542 10544 10546 10547 10549 10549 10549 10548 10547 10550 10553 10553 10553 10555 10556 10556 10556 10557 10558 10559 10559 10560 10561 10561 10562 10562 10562 10563 10563 10564 10565 10567 10569 10570 10571 10572 10572 10571 10571 10571 10570 10570 10571 10570 10570 10570 10569 10568 10568 10568 10567 10566 10565 10565 10564 10563 10561
10523 10525 10526 10528 10530 10533 10536 10537 10539 10540 10541 10540 10541 10542 10543 10545 10547 10546 10545 10547 10548 10548 10549 10550 10551 10552 10553 10553 10554 10554 10554 10555 10555 10555 10555 10556 10557 10558 10560 10561 10562 10564 10564 10563 10563 10563 10563 10563 10563 10563 10563 10563 10562 10561 10561 10561 10560 10559 10558 10558 10557 10556 10555
10516 10518 10519 10520 10522 10525 10528 10529 10529 10531 10531 10531 10533 10536 10538 10539 10541 10541 10539 10539 10540 10541 10542 10543 10544 10545 10545 10546 10547 10547 10547 10547 10548 10548 10549 10550 10550 10551 10552 10553 10555 10556 10556 10556 10556 10556 10556 10556 10556 10556 10555 10555 10555 10554 10553 10553 10552 10551 10550 10550 10549 10548 10546
10509 10511 10511 10512 10515 10518 10519 10520 10521 10522 10523 10524 10526 10529 10531 10532 10534 10533 10532 10533 10534 10535 10536 10536 10536 10537 10538 10538 10539 10539 10540 10540 10541 10541 10542 10543 10543 10544 10544 10545 10546 10547 10548 10548 10548 10548 10549 10549 10549 10549 10548 10547 10547 10546 10545 10544 10544 10543 10542 10541 10540 10539 10538
10500 10503 10503 10504 10507 10510 10511 10512 10513 10514 10516 10517 10518 10520 10522 10524 10525 10525 10525 10526 10527 10528 10529 10529 10529 10530 10530 10530 10530 10530 10532 10533 10533 10533 10534 10535 10535 10536 10536 10537 10538 10538 10539 10539 10540 10540 10541 10541 10541 10541 10540 10539 10539 10538 10537 10536 10536 10535 10534 10532 10531 10530 10529
10490 10493 10494 10496 10499 10502 10503 10504 10505 10505 10507 10509 10511 10512 10513 10515 10516 10517 10518 10519 10520 10521 10521 10522 10522 10523 10523 10523 10523 10523 10523 10523 10524 10524 10525 10526 10527 10527 10528 10529 10529 10530 10531 10531 10531 10531 10532 10532 10532 10531 10531 10531 10530 10529 10529 10528 10527 10526 10525 10524 10523 10521 10520
10481 10483 10485 10487 10489 10492 10495 10496 10496 10497 10498 10501 10503 10504 10505 10506 10507 10509 10510 10512 10512 10513 10514 10514 10515 10515 10515 10515 10515 10515 10515 10515 10515 10514 10515 10516 10517 10517 10518 10519 10520 10521 10522 10522 10522 10522 10522 10523 10523 10523 10522 10522 10521 10520 10519 10518 10517 10516 10515 10514 10513 10512 10511